This demonstration page uses our WeatherBlox Daily Observations layout. Learn more.

Left ArrowRight Arrow

39.08367, -84.50855

Hourly Observations for December 24, 2017

Temp ( °F °C ) Dew Point ( °F °C ) Humidity (%) Winds ( mph kmh ) Pressure ( in mb ) Visibility ( mi km ) Precip ( " mm )
12:16 am 00:16 Cloudy 35 1.7 29 -1.7 78 78 NNW 6 9 30.21 1023 10 16 N/A
12:32 am 00:32 Cloudy 35 1.7 28 -2.2 76 76 NW 7 11 30.27 1025 10 16 N/A
12:53 am 00:53 Cloudy 35 1.7 28 -2.2 76 76 NNW 5 7 30.24 1024 10 16 N/A
1:53 am 01:53 Cloudy 34 1.1 29 -1.7 82 82 N N/A 30.22 1023 10 16 N/A
2:53 am 02:53 Cloudy 34 1.1 29 -1.7 82 82 E 3 6 30.23 1024 10 16 N/A
3:53 am 03:53 Cloudy 34 1.1 29 -1.7 82 82 N N/A 30.24 1024 10 16 N/A
4:53 am 04:53 Mostly Cloudy 32 undefined 29 -1.7 88 88 NE 5 7 30.23 1024 10 16 N/A
5:53 am 05:53 Clear 31 -0.6 28 -2.2 89 89 NE 3 6 30.22 1023 10 16 N/A
6:53 am 06:53 Mostly Clear 31 -0.6 29 -1.7 92 92 NE 5 7 30.22 1023 9 14 N/A
7:53 am 07:53 Clear 30 -1.1 29 -1.7 96 96 NE 5 7 30.19 1022 8 13 N/A
8:53 am 08:53 Sunny with Mist and Fog 32 undefined 30 -1.1 92 92 NE 3 6 30.16 1021 6 10 N/A
9:53 am 09:53 Sunny 34 1.1 29 -1.7 82 82 ESE 3 6 30.14 1021 9 14 N/A
10:53 am 10:53 Cloudy 36 2.2 29 -1.7 76 76 SSW 5 7 30.13 1020 10 16 N/A
11:53 am 11:53 Cloudy 36 2.2 29 -1.7 76 76 S 8 13 30.09 1019 10 16 N/A
12:53 pm 12:53 Cloudy 36 2.2 28 -2.2 73 73 SE 6 9 30.03 1017 10 16 N/A
1:53 pm 13:53 Cloudy 37 2.8 30 -1.1 76 76 S 7 11 29.99 1016 10 16 N/A
2:53 pm 14:53 Cloudy 36 2.2 30 -1.1 79 79 SSW 6 9 29.96 1014 10 16 N/A
3:24 pm 15:24 Cloudy with Mist and Fog 35 1.7 32 undefined 89 89 SW 8 13 29.94 1014 3 4 N/A
3:53 pm 15:53 Cloudy with Light Rain 35 1.7 34 1.1 96 96 SW 3 6 29.95 1014 3 4 N/A
3:55 pm 15:55 Cloudy with Light Rain 35 1.7 34 1.1 96 96 N N/A 29.94 1014 3 4 N/A
4:49 pm 16:49 Cloudy with Light Snow 36 2 34 1 93 93 SSW 5 7 29.94 1014 2 2 N/A
4:53 pm 16:53 Cloudy with Light Snow 34 1.1 34 1.1 100 100 SSW 6 9 29.94 1014 1 2 N/A
5:53 pm 17:53 Cloudy with Light Snow 33 0.6 33 0.6 100 100 WSW 6 9 29.95 1014 2 3 0.04 1.02
6:53 pm 18:53 Cloudy with Light Snow 34 1.1 33 0.6 97 97 WSW 10 17 29.96 1015 3 4 0.01 0.25
7:00 pm 19:00 Cloudy with Light Snow 34 1.1 33 0.6 97 97 WSW 10 17 29.94 1014 3 5 N/A
7:46 pm 19:46 Windy with Snow Likely 33 0.6 31 -0.6 92 92 W 25 41 29.97 1015 2 3 0.01 0.25
7:53 pm 19:53 Windy with Snow Likely 32 undefined 27 -2.8 82 82 W 22 35 29.99 1016 3 5 0.01 0.25
8:14 pm 20:14 Cloudy 31 -0.6 26 -3.3 82 82 W 21 33 30.03 1017 9 14 N/A
8:53 pm 20:53 Cloudy 30 -1.1 23 -5 75 75 W 21 33 30.05 1018 10 16 N/A
9:53 pm 21:53 Cloudy 27 -2.8 20 -6.7 75 75 W 17 28 30.11 1020 10 16 N/A
10:53 pm 22:53 Windy with Snow Likely 23 -5 15 -9.4 72 72 W 24 39 30.16 1021 9 14 N/A
11:53 pm 23:53 Cloudy 23 -5 13 -10.6 65 65 W 22 35 30.19 1022 9 14 N/A

Powered by AerisWeather